Regional Weather Roundup
Issued by NWS

Home | Current Version | Previous Version | Text Only | Print | Product List | Glossary Off
Versions: 1 2 3 4 5 6 7 8 9 10 11 12 13 14 15 16 17 18 19 20 21 22 23 24 25 26 27 28 29 30 31 32 33 34 35 36 37 38 39 40 41 42 43 44 45 46 47 48 49 50

000
ASUS43 KMPX 032301
RWRMN
WEATHER ROUNDUP FOR MINNESOTA
NATIONAL WEATHER SERVICE TWIN CITIES/CHANHASSEN MN
600 PM CDT SUN MAY 03 2015


NOTE: "FAIR" INDICATES FEW OR NO CLOUDS BELOW 12,000 FEET WITH NO
SIGNIFICANT WEATHER AND/OR OBSTRUCTIONS TO VISIBILITY. N/A MEANS
CURRENT SKY AND/OR WEATHER CONDITIONS ARE NOT AVAILABLE.

MNZ060>063-068>070-040000-
   Twin Cities Metro

CITY           SKY/WX    TMP DP  RH WIND       PRES   REMARKS
TWIN CITIES    CLOUDY    63  55  75 N18G31    29.81R
ST PAUL        LGT RAIN  60  57  89 N17G28    29.84R FOG
CRYSTAL        CLOUDY    66  52  60 N17G29    29.83F
LAKEVILLE      CLOUDY    63  59  88 NE5       29.80R
EDEN PRAIRIE   CLOUDY    66  51  58 N17G30    29.80R
SOUTH ST PAUL  LGT RAIN  62  55  77 N17G30    29.81R
LAKE ELMO        N/A     55  54  94 N14G54    29.86R VSB 1/2
$$
MNZ001>005-007-008-013>017-022>024-027-028-040000-
   Northwest Minnesota

CITY           SKY/WX    TMP DP  RH WIND       PRES   REMARKS
BEMIDJI        SUNNY     66  26  22 NW10      29.89S
HALLOCK        MOSUNNY   66  23  19 N15G22    29.91R
ROSEAU         MOSUNNY   64  32  29 NW18      29.89S
WARROAD        SUNNY     63  36  36 NW15G28   29.89R
THIEF RVR FALL SUNNY     66  25  20 NW17G23   29.91R
CROOKSTON      MOSUNNY   68  25  19 NW18      29.92R
MOORHEAD       SUNNY     70  21  16 NW15G22   29.92S
PARK RAPIDS    MOSUNNY   67  25  20 NW14      29.90R
MAHNOMEN       FAIR      67  23  18 NW14G23   29.91R
$$
MNZ006-009>011-018-025>026-040000-
   North Central Minnesota

CITY           SKY/WX    TMP DP  RH WIND       PRES   REMARKS
BAUDETTE       SUNNY     63  31  30 NW16G28   29.87R
FLAG ISLAND    SUNNY     57  37  47 NW25G32   29.87R
INTL FALLS     SUNNY     66  28  24 NW12G23   29.84S
WASKISH        SUNNY     64  36  34 W7G17     29.88R
BIG FORK       MOSUNNY   66  28  24 W6        29.87S
LONGVILLE      MOSUNNY   66  27  22 W14       29.89R
GRAND RAPIDS   CLOUDY    64  28  25 NW15G21   29.88F
CRANE LAKE     PTSUNNY   64  19  17 W10G16    29.86R
COOK           MOSUNNY   66  27  22 NW13G21   29.85S
WALKER         FAIR      64  27  24 W10G16    29.89R
$$
MNZ012-019>021-037-040000-
   Northeast Minnesota

CITY           SKY/WX    TMP DP  RH WIND       PRES   REMARKS
DULUTH         CLOUDY    63  47  55 W5        29.85F
ELY            CLOUDY    64  34  32 W7        29.83F
HIBBING        PTSUNNY   64  31  28 NW17      29.86S
EVELETH        CLOUDY    63  32  31 W10       29.87S
DULUTH HARBOR  LGT RAIN  57  48  72 SW5       29.87R
TWO HARBORS    CLOUDY    66  45  45 CALM      29.83F
SILVER BAY     CLOUDY    66  37  34 CALM      29.83S
GRAND MARAIS     N/A     69  36  29 W9G25     29.80R
G MARAIS ARPRT CLOUDY    63  34  34 W10G18    29.85R
$$
MNZ029>031-032-039>041-046>048-054>057-064-040000-
   West Central Minnesota

CITY           SKY/WX    TMP DP  RH WIND       PRES   REMARKS
FERGUS FALLS   PTSUNNY   66  32  28 N12G22    29.93S
WHEATON        PTSUNNY   63  28  27 NW15      29.97R
MORRIS         PTSUNNY   70  32  24 N17G25    29.91R
ALEXANDRIA     PTSUNNY   66  36  32 NW17G23   29.92R
ELBOW LAKE     FAIR      64  26  23 N15       29.91F
WADENA         MOSUNNY   66  32  28 NW12      29.90R
GLENWOOD       PTSUNNY   70  37  30 N10       29.91R
APPLETON       MOSUNNY   73  34  23 N16       29.90S
BENSON         PTSUNNY   72  30  21 N9G17     29.90S
ORTONVILLE     MOSUNNY   68  30  24 N15       29.93R
MADISON        PTSUNNY   70  32  24 N16       29.90F
WILLMAR        FAIR      70  39  32 N14       29.88F
$$
MNZ033>034-036-042>043-049>051-058-059-040000-
   Central Minnesota

CITY           SKY/WX    TMP DP  RH WIND       PRES   REMARKS
ST CLOUD       CLOUDY    68  42  38 N10       29.86R
SAUK CENTRE    FAIR      68  37  31 N10       29.89R
PAYNESVILLE    CLOUDY    63  40  42 N10G17    29.88S
AITKIN         CLOUDY    68  28  22 N6        29.84F
PINE RIVER     MOSUNNY   66  37  34 W8        29.91R
BRAINERD       PTSUNNY   69  35  28 N8        29.87F
STAPLES        MOSUNNY   64  34  32 NW8       29.90R
LONG PRAIRIE   FAIR      68  36  30 NW9       29.89R
LITTLE FALLS   PTSUNNY   68  36  30 CALM      29.86F
LITCHFIELD     PTSUNNY   66  41  39 N18       29.87R
BUFFALO        PTSUNNY   67  43  41 N10G18    29.85R
MAPLE LAKE     PTSUNNY   65  48  54 NW12G20   29.86R
$$
MNZ037-044-045-052-053-040000-
   East Central Minnesota

CITY           SKY/WX    TMP DP  RH WIND       PRES   REMARKS
PRINCETON      DRIZZLE   68  39  34 N16G22    29.85F
MORA           LGT RAIN  63  41  45 N5        29.87F
CAMBRIDGE      LGT RAIN  66  45  45 N13G29    29.83S
RUSH CITY      CLOUDY    69  36  29 N18G25    29.86R
MOOSE LAKE     LGT RAIN  55  48  76 S5        29.86F
HINCKLEY       RAIN      64  43  45 NW13G26   29.88R
CLOQUET        CLOUDY    61  45  55 CALM      29.87F
MCGREGOR       CLOUDY    68  36  30 CALM      29.86F
$$
MNZ071>073-080-081-089-090-097-098-040000-
   Southwest Minnesota

CITY           SKY/WX    TMP DP  RH WIND       PRES   REMARKS
MONTEVIDEO     PTSUNNY   73  36  25 NE16      29.90S
GRANITE FALLS  PTSUNNY   68  43  40 N13G18    29.89F
CANBY          PTSUNNY   71  35  26 N16G23    29.90F
MARSHALL       CLOUDY    68  39  34 N24       29.86S
REDWOOD FALLS  LGT RAIN  70  35  27 N17G26    29.85R
OLIVIA         PTSUNNY   68  37  32 N21G28    29.89R
PIPESTONE      CLOUDY    64  39  39 NE21G26   29.87R
WINDOM         PTSUNNY   73  37  27 N31G40    29.83R
WORTHINGTON    PTSUNNY   73  39  29 N29G40    29.82F
JACKSON        CLOUDY    73  39  29 N24G30    29.82R
TRACY          CLOUDY    68  37  31 N24       29.87S
SLAYTON        PTSUNNY   69  33  26 N24G32    29.86S HAZE
$$
MNZ065>067-074>077-082>085-091>093-040000-
   South Central Minnesota

CITY           SKY/WX    TMP DP  RH WIND       PRES   REMARKS
MANKATO          N/A    N/A N/A N/A MISG        N/A
NEW ULM        MOSUNNY   73  37  27 N20G29    29.81R
ST JAMES       MOSUNNY   79  41  25 N32G40    29.80R
FAIRMONT       PTSUNNY   79  54  41 N32G39    29.75R
GLENCOE        CLOUDY    70  49  46 N15G25    29.83R
FARIBAULT      TSTM      64  59  82 N7        29.81R
OWATONNA       RAIN      70  59  68 NW32G38   29.76R
WASECA         TSTM      66  57  72 NW12      29.78R
ALBERT LEA     MOSUNNY   84  46  26 S7        29.71F
$$
MNZ078>079-086>088-094>096-040000-
   Southeast Minnesota

CITY           SKY/WX    TMP DP  RH WIND       PRES   REMARKS
ROCHESTER      MOSUNNY   81  51  35 S12       29.75S
RED WING       CLOUDY    70  55  60 S9G37     29.73R
STANTON        TSTM      64  58  82 N22G44    29.76R
DODGE CENTER   MOSUNNY   81  48  32 S13       29.74S
WINONA         MOSUNNY   81  46  30 SW6       29.74R
AUSTIN         MOSUNNY   79  54  41 S9        29.73S
PRESTON        PTSUNNY   80  49  32 S12       29.77S
$$
ABBREVIATIONS USED IN REMARKS
   TC - TEMPERATURES IN CELSIUS
  WCI - WIND CHILL INDEX
   HX - HEAT INDEX
  VSB - VISIBILITY
$$


USA.gov is the U.S. government's official web portal to all federal, state and local government web resources and services.